This is the latest recevied weather packets stored in our database for station/object N6GPM. If no packets are shown the sender has not sent any weather packets the latest 10 day(s).
| Time | Temp. | Humidity | Pressure | Rain* | Wind** | Luminosity | Snow |
|---|---|---|---|---|---|---|---|
| 1787497262 | 27.78° C | 36% | 1018.4 hPa | 0 mm | - | 259 W/m² | - |
| 1787496956 | 27.22° C | 37% | 1018.1 hPa | 0 mm | - | 242 W/m² | - |
| 1787496656 | 27.22° C | 37% | 1018.1 hPa | 0 mm | - | 220 W/m² | - |
| 1787496351 | 26.67° C | 39% | 1018 hPa | 0 mm | - | 200 W/m² | - |
| 1787496051 | 27.22° C | 37% | 1018.1 hPa | 0 mm | - | 180 W/m² | - |
| 1787495751 | 26.67° C | 39% | 1018 hPa | 0 mm | - | 162 W/m² | - |
| 1787495447 | 26.11° C | 39% | 1018 hPa | 0 mm | - | 145 W/m² | - |
| 1787495143 | 25.56° C | 39% | 1018.2 hPa | 0 mm | - | 128 W/m² | - |
| 1787494838 | 25° C | 40% | 1018.1 hPa | 0 mm | - | 109 W/m² | - |
| 1787494533 | 25° C | 40% | 1018 hPa | 0 mm | - | 95 W/m² | - |
| 1787494229 | 24.44° C | 40% | 1018 hPa | 0 mm | - | 82 W/m² | - |
| 1787493925 | 24.44° C | 39% | 1018.1 hPa | 0 mm | - | 69 W/m² | - |
| 1787493620 | 24.44° C | 39% | 1018.1 hPa | 0 mm | - | 59 W/m² | - |
| 1787493315 | 23.89° C | 39% | 1018 hPa | 0 mm | - | 50 W/m² | - |
| 1787493011 | 23.89° C | 40% | 1017.9 hPa | 0 mm | - | 41 W/m² | - |
| 1787492707 | 23.89° C | 40% | 1017.9 hPa | 0 mm | - | 34 W/m² | - |
| 1787492403 | 23.89° C | 41% | 1017.9 hPa | 0 mm | - | 27 W/m² | - |
| 1787492102 | 23.89° C | 46% | 1017.8 hPa | 0 mm | - | 21 W/m² | - |
| 1787491797 | 23.89° C | 47% | 1017.9 hPa | 0 mm | - | 16 W/m² | - |
| 1787491493 | 23.89° C | 48% | 1017.8 hPa | 0 mm | - | 11 W/m² | - |
| 1787491188 | 23.89° C | 48% | 1017.6 hPa | 0 mm | - | 6 W/m² | - |
| 1787490884 | 23.89° C | 48% | 1017.6 hPa | 0 mm | - | 3 W/m² | - |
| 1787490584 | 23.89° C | 48% | 1017.8 hPa | 0 mm | - | 2 W/m² | - |
| 1787490278 | 23.89° C | 48% | 1017.6 hPa | 0 mm | - | 1 W/m² | - |
| 1787489977 | 23.89° C | 48% | 1017.5 hPa | 0 mm | - | 0 W/m² | - |
* Rain latest hour (hover to see other rain measurements)
** Current wind speed in m/s (hover to see current wind gust speed)